Decherd, TN

5:58 PM CDT on September 28, 2016 (GMT -0500)
Winchester Municipal

Weather History for KBGF - June, 2014

Change the Weather History Date:

Saturday, June 7, 2014

  Actual Average (KTHA) Record (KTHA)
Temperature  
Mean Temperature 76 °F -  
Max Temperature 86 °F 83 °F 87 °F (2015)
Min Temperature 66 °F 60 °F 55 °F (2016)
Cooling Degree Days 11    
Growing Degree Days 26 (Base 50)    
Moisture  
Dew Point 68 °F    
Average Humidity 81    
Maximum Humidity 100    
Minimum Humidity 55    
Precipitation  
Precipitation 0.00 in - - ()
Sea Level Pressure  
Sea Level Pressure 29.98 in    
Wind  
Wind Speed 3 mph (WSW)    
Max Wind Speed 9 mph    
Max Gust Speed -    
Visibility 9 miles    
Events      
Averages and records for this station are not official NWS values.
T = Trace of Precipitation, MM = Missing Value Source: NWS Daily Summary

Daily Weather History Graph

Daily Weather History Graph

Search for Another Location

Airport or City:

Trip Planner

Search our weather history database for the weather conditions in past years. The results will help you decide how hot, cold, wet, or windy it might be!

Date:

Astronomy

Jun. 07, 2014 Rise Set
Actual Time 6:29 AM EDT 8:56 PM EDT
Civil Twilight 6:00 AM EDT 9:26 PM EDT
Nautical Twilight 5:23 AM EDT 10:02 PM EDT
Astronomical Twilight 4:43 AM EDT 10:43 PM EDT
Moon 3:25 PM EDT (6/7) 2:38 AM EDT (6/7)
Length of Visible Light 15h 26m
Length of Day
14h 27m
Waxing Gibbous, 67% of the Moon is Illuminated
Jun 7
Waxing Gibbous
Jun 13
Full
Jun 19
Last Quarter
Jun 27
New
Jul 5
First Quarter

Hourly Weather History & Observations

Time (EDT) Temp. Heat Index Dew Point Humidity Pressure Visibility Wind Dir Wind Speed Gust Speed Precip Events Conditions
12:15 AM 69.8 °F - 68.0 °F 94% 29.96 in 10.0 mi WNW 3.5 mph - N/A   Clear
12:35 AM 69.8 °F - 68.0 °F 94% 29.97 in 10.0 mi WSW 4.6 mph - N/A   Clear
12:55 AM 69.8 °F - 66.2 °F 88% 29.98 in 10.0 mi WSW 5.8 mph - N/A   Scattered Clouds
1:55 AM 68.0 °F - 66.2 °F 94% 29.98 in 10.0 mi WSW 4.6 mph - N/A   Overcast
2:15 AM 68.0 °F - 66.2 °F 94% 29.97 in 10.0 mi Calm Calm - N/A   Overcast
2:35 AM 66.2 °F - 66.2 °F 100% 29.98 in 8.0 mi Calm Calm - N/A   Overcast
2:55 AM 66.2 °F - 66.2 °F 100% 29.98 in 6.0 mi Calm Calm - N/A   Overcast
3:15 AM 66.2 °F - 66.2 °F 100% 29.98 in 9.0 mi Calm Calm - N/A   Overcast
3:35 AM 66.2 °F - 66.2 °F 100% 29.98 in 7.0 mi SSW 3.5 mph - N/A   Overcast
3:55 AM 66.2 °F - 66.2 °F 100% 29.98 in 4.0 mi SSW 3.5 mph - N/A   Overcast
4:15 AM 66.2 °F - 66.2 °F 100% 29.99 in 8.0 mi Calm Calm - N/A   Overcast
4:35 AM 66.2 °F - 66.2 °F 100% 29.99 in 10.0 mi Calm Calm - N/A   Mostly Cloudy
4:55 AM 66.2 °F - 66.2 °F 100% 30.00 in 10.0 mi Calm Calm - N/A   Mostly Cloudy
5:15 AM 66.2 °F - 66.2 °F 100% 30.00 in 10.0 mi Calm Calm - N/A   Mostly Cloudy
5:35 AM 66.2 °F - 66.2 °F 100% 30.00 in 10.0 mi Calm Calm - N/A   Overcast
5:55 AM 66.2 °F - 66.2 °F 100% 29.98 in 8.0 mi SE 4.6 mph - N/A   Mostly Cloudy
6:15 AM 66.2 °F - 66.2 °F 100% 30.00 in 9.0 mi Calm Calm - N/A   Partly Cloudy
6:35 AM 66.2 °F - 66.2 °F 100% 30.01 in 8.0 mi Calm Calm - N/A   Partly Cloudy
6:55 AM 66.2 °F - 66.2 °F 100% 30.02 in 9.0 mi West 5.8 mph - N/A   Mostly Cloudy
7:15 AM 66.2 °F - 66.2 °F 100% 30.02 in 10.0 mi Calm Calm - N/A   Mostly Cloudy
7:35 AM 66.2 °F - 66.2 °F 100% 30.02 in 10.0 mi Calm Calm - N/A   Overcast
8:15 AM 68.0 °F - 66.2 °F 94% 30.03 in 10.0 mi Calm Calm - N/A   Mostly Cloudy
9:15 AM 69.8 °F - 66.2 °F 88% 30.03 in 10.0 mi Calm Calm - N/A   Overcast
9:35 AM 71.6 °F - 66.2 °F 83% 30.03 in 10.0 mi Calm Calm - N/A   Overcast
9:55 AM 71.6 °F - 66.2 °F 83% 30.03 in 10.0 mi Calm Calm - N/A   Mostly Cloudy
10:15 AM 73.4 °F - 66.2 °F 78% 30.03 in 10.0 mi Calm Calm - N/A   Mostly Cloudy
10:35 AM 75.2 °F - 68.0 °F 78% 30.02 in 10.0 mi West 3.5 mph - N/A   Mostly Cloudy
10:55 AM 75.2 °F - 68.0 °F 78% 30.02 in 10.0 mi Calm Calm - N/A   Scattered Clouds
11:15 AM 77.0 °F - 69.8 °F 78% 30.02 in 10.0 mi Calm Calm - N/A   Partly Cloudy
11:35 AM 77.0 °F - 69.8 °F 78% 30.02 in 10.0 mi Calm Calm - N/A   Partly Cloudy
11:55 AM 78.8 °F - 69.8 °F 74% 30.02 in 10.0 mi Calm Calm - N/A   Partly Cloudy
12:15 PM 80.6 °F 83.9 °F 69.8 °F 70% 30.01 in 10.0 mi WNW 4.6 mph - N/A   Partly Cloudy
12:35 PM 82.4 °F 86.3 °F 69.8 °F 66% 30.00 in 10.0 mi Variable 3.5 mph - N/A   Partly Cloudy
12:55 PM 82.4 °F 86.3 °F 69.8 °F 66% 29.99 in 10.0 mi SW 6.9 mph - N/A   Partly Cloudy
1:15 PM 82.4 °F 86.3 °F 69.8 °F 66% 29.99 in 10.0 mi SW 4.6 mph - N/A   Partly Cloudy
1:35 PM 84.2 °F 87.3 °F 68.0 °F 58% 29.98 in 10.0 mi SW 8.1 mph - N/A   Partly Cloudy
1:55 PM 84.2 °F 87.3 °F 68.0 °F 58% 29.98 in 10.0 mi Calm Calm - N/A   Partly Cloudy
2:15 PM 84.2 °F 86.6 °F 66.2 °F 55% 29.97 in 10.0 mi WSW 5.8 mph - N/A   Clear
2:35 PM 82.4 °F 84.6 °F 66.2 °F 58% 29.97 in 10.0 mi Variable 3.5 mph - N/A   Scattered Clouds
2:55 PM 84.2 °F 86.6 °F 66.2 °F 55% 29.96 in 10.0 mi WSW 8.1 mph - N/A   Mostly Cloudy
3:15 PM 86.0 °F 89.4 °F 68.0 °F 55% 29.96 in 10.0 mi SSW 6.9 mph - N/A   Scattered Clouds
3:35 PM 84.2 °F 87.3 °F 68.0 °F 58% 29.96 in 10.0 mi West 3.5 mph - N/A   Scattered Clouds
3:55 PM 84.2 °F 88.4 °F 69.8 °F 62% 29.95 in 10.0 mi West 5.8 mph - N/A   Scattered Clouds
4:15 PM 86.0 °F 90.4 °F 69.8 °F 58% 29.95 in 10.0 mi SW 8.1 mph - N/A   Partly Cloudy
4:35 PM 84.2 °F 87.3 °F 68.0 °F 58% 29.94 in 10.0 mi WSW 6.9 mph - N/A   Clear
4:55 PM 84.2 °F 88.4 °F 69.8 °F 62% 29.94 in 10.0 mi Variable 5.8 mph - N/A   Scattered Clouds
5:15 PM 84.2 °F 87.3 °F 68.0 °F 58% 29.94 in 10.0 mi Variable 6.9 mph - N/A   Scattered Clouds
5:35 PM 86.0 °F 90.4 °F 69.8 °F 58% 29.93 in 10.0 mi West 6.9 mph - N/A   Clear
5:55 PM 84.2 °F 87.3 °F 68.0 °F 58% 29.94 in 10.0 mi WSW 6.9 mph - N/A   Partly Cloudy
6:15 PM 84.2 °F 88.4 °F 69.8 °F 62% 29.94 in 10.0 mi WSW 4.6 mph - N/A   Partly Cloudy
6:35 PM 84.2 °F 88.4 °F 69.8 °F 62% 29.93 in 10.0 mi WSW 5.8 mph - N/A   Clear
6:55 PM 84.2 °F 88.4 °F 69.8 °F 62% 29.93 in 10.0 mi Calm Calm - N/A   Clear
7:35 PM 82.4 °F 86.3 °F 69.8 °F 66% 29.93 in 10.0 mi WSW 3.5 mph - N/A   Clear
7:55 PM 82.4 °F 86.3 °F 69.8 °F 66% 29.93 in 10.0 mi Calm Calm - N/A   Clear
8:15 PM 80.6 °F 83.9 °F 69.8 °F 70% 29.92 in 10.0 mi SSW 3.5 mph - N/A   Clear
8:35 PM 80.6 °F 83.9 °F 69.8 °F 70% 29.93 in 10.0 mi Calm Calm - N/A   Scattered Clouds
8:55 PM 78.8 °F - 71.6 °F 78% 29.92 in 10.0 mi SSE 3.5 mph - N/A   Scattered Clouds
9:15 PM 77.0 °F - 71.6 °F 83% 29.94 in 10.0 mi Calm Calm - N/A   Partly Cloudy
9:35 PM 77.0 °F - 71.6 °F 83% 29.94 in 10.0 mi Calm Calm - N/A   Mostly Cloudy
9:55 PM 73.4 °F - 71.6 °F 94% 29.96 in 5.0 mi SE 9.2 mph - N/A   Mostly Cloudy
10:15 PM 73.4 °F - 71.6 °F 94% 29.98 in 6.0 mi Calm Calm - N/A   Overcast
10:35 PM 71.6 °F - 69.8 °F 94% 29.98 in 4.0 mi Calm Calm - N/A   Overcast
10:55 PM 71.6 °F - 69.8 °F 94% 30.00 in 7.0 mi West 5.8 mph - N/A   Mostly Cloudy
11:15 PM 69.8 °F - 66.2 °F 88% 30.02 in 5.0 mi West 5.8 mph - N/A   Overcast
11:35 PM 68.0 °F - 66.2 °F 94% 30.02 in 5.0 mi Calm Calm - N/A   Mostly Cloudy
11:55 PM 66.2 °F - 66.2 °F 100% 30.00 in 3.0 mi Calm Calm - N/A   Overcast